STARLINK-35103

Last updated on Sun Oct 19 2025 00:02:05 GMT+0000 (Coordinated Universal Time)

1 65633U 25210M 25291.19217103 .00073350 00000+0 18247-2 0 9997 2 65633 53.1588 251.1250 0001201 97.3436 262.7705 15.39643735 5883
UTC large
Height (km)
Speed (km/s)
/
Latitude / Longitude
Inclination (degrees)
Orbital Period (minutes)
Azimuth
Elevation
Range (km)
Doppler Factor

Next 0 passes for location: London (51.5072 / 0.1276)

Sorry there are no passes over London.